Regional Weather Roundup
Issued by NWS

Home | Current Version | Previous Version | Graphics & Text | Print | Product List | Glossary On
Versions: 1 2 3 4 5 6 7 8 9 10 11 12 13 14 15 16 17 18 19 20 21 22 23 24 25 26 27 28 29 30 31 32 33 34 35 36 37 38 39 40 41 42 43 44 45 46 47 48 49 50
000
ASUS43 KMPX 280210
RWRMN
WEATHER ROUNDUP FOR MINNESOTA
NATIONAL WEATHER SERVICE TWIN CITIES/CHANHASSEN MN
800 PM CST FRI FEB 27 2015


NOTE: "FAIR" INDICATES FEW OR NO CLOUDS BELOW 12,000 FEET WITH NO
SIGNIFICANT WEATHER AND/OR OBSTRUCTIONS TO VISIBILITY. N/A MEANS
CURRENT SKY AND/OR WEATHER CONDITIONS ARE NOT AVAILABLE.

MNZ060>063-068>070-280300-
   Twin Cities Metro

CITY           SKY/WX    TMP DP  RH WIND       PRES   REMARKS
TWIN CITIES    CLEAR     10  -2  58 S6        30.53R WCI   0
ST PAUL        CLEAR      9  -2  61 S6        30.55R WCI  -1
CRYSTAL        CLEAR     10  -1  61 S5        30.51R WCI   2
BLAINE         CLEAR     12   1  62 SW7       30.51R WCI   2
LAKEVILLE      CLEAR      1  -4  78 SW1       30.52S
EDEN PRAIRIE   CLEAR      6  -3  66 SW5       30.51S WCI  -3
SOUTH ST PAUL  CLEAR      9  -1  61 CALM      30.53S
LAKE ELMO      FAIR       9   0  66 S6        30.53R WCI  -1
$$
MNZ001>005-007-008-013>017-022>024-027-028-280300-
   Northwest Minnesota

CITY           SKY/WX    TMP DP  RH WIND       PRES   REMARKS
BEMIDJI        CLEAR      8  -5  54 SW5       30.34S WCI   0
HALLOCK        MOCLDY     7   0  72 S10       30.31F WCI  -8
ROSEAU         PTCLDY     9   1  72 SW10      30.31S WCI  -6
WARROAD        CLEAR      7   0  72 SW7       30.30F WCI  -5
THIEF RVR FALL PTCLDY     3  -2  78 S7        30.34S WCI  -9
CROOKSTON      PTCLDY     5  -2  72 S8        30.37F WCI  -8
FOSSTON        CLEAR     -2  -8  78 S9        30.35F WCI -18
DETROIT LAKES  CLEAR      9   0  66 S7        30.38R WCI  -3
MOORHEAD       CLEAR     12   0  57 S8        30.40S WCI   1
PARK RAPIDS    CLEAR      3  -8  60 S7        30.36S WCI  -9
MAHNOMEN       FAIR       4  -4  68 S8        30.36S WCI  -9
$$
MNZ006-009>011-018-025>026-280300-
   North Central Minnesota

CITY           SKY/WX    TMP DP  RH WIND       PRES   REMARKS
BAUDETTE       PTCLDY     6  -8  52 SW7       30.30S WCI  -6
FLAG ISLAND    PTCLDY     7  -2  66 SW7       30.29S WCI  -5
INTL FALLS     PTCLDY     9  -9  44 SW8       30.32R WCI  -3
WASKISH        PTCLDY     9  -2  61 CALM      30.34S
BIG FORK       CLEAR      3 -13  47 CALM      30.34S
LONGVILLE      CLEAR      9  -6  52 SW5       30.38R WCI   0
GRAND RAPIDS   CLEAR      9  -9  43 S6        30.35R WCI  -1
CRANE LAKE     PTCLDY     9 -17  31 CALM      30.35S
ORR            CLEAR      9 -15  33 CALM      30.31R
COOK           CLEAR     10 -11  37 SW5       30.34R WCI   2
WALKER         FAIR       9  -7  48 SW5       30.36S WCI   0
$$
MNZ012-019>021-037-280300-
   Northeast Minnesota

CITY           SKY/WX    TMP DP  RH WIND       PRES   REMARKS
DULUTH         CLEAR     12  -6  44 SW14      30.37R WCI  -3
ELY            PTCLDY     9  -9  43 SW3       30.32S
HIBBING        CLEAR      2 -12  52 SW5       30.35R WCI  -8
EVELETH        CLEAR      9  -9  43 CALM      30.35S
DULUTH HARBOR  CLEAR     14  -4  44 SW12      30.45R WCI   0
TWO HARBORS    CLEAR     12  -6  44 W7        30.37R WCI   2
SILVER BAY     CLEAR     12  -8  40 CALM      30.36R
GRAND MARAIS     N/A     15  -7  37 W5        30.38R WCI   8
G MARAIS ARPRT PTCLDY     9 -15  33 SW5       30.28R WCI   0
$$
MNZ029>031-032-039>041-046>048-054>057-064-280300-
   West Central Minnesota

CITY           SKY/WX    TMP DP  RH WIND       PRES   REMARKS
FERGUS FALLS   CLEAR      3  -4  72 S8        30.44S WCI -10
WHEATON        CLEAR      7  -2  66 S7        30.44S WCI  -5
MORRIS         CLEAR      1  -4  78 S6        30.42S WCI -10
ALEXANDRIA     CLEAR      5  -5  63 S7        30.41S WCI  -7
ELBOW LAKE     FAIR       1  -5  75 S8        30.40F WCI -13
WADENA         CLEAR      1  -6  71 SW3       30.39S
APPLETON       CLEAR      7   0  72 S5        30.45S WCI  -2
BENSON         CLEAR      7   0  72 S6        30.44F WCI  -3
ORTONVILLE     CLEAR      7  -2  66 S6        30.43S WCI  -3
MADISON        CLEAR      3  -2  78 S8        30.45S WCI -10
WILLMAR        FAIR       3  -4  72 SE6       30.47S WCI  -8
$$
MNZ033>034-036-042>043-049>051-058-059-280300-
   Central Minnesota

CITY           SKY/WX    TMP DP  RH WIND       PRES   REMARKS
ST CLOUD       CLEAR      8  -2  63 S9        30.47R WCI  -5
SAUK CENTRE    FAIR       4  -3  72 S6        30.43F WCI  -7
PAYNESVILLE    CLEAR      5  -3  69 SE3       30.46S
AITKIN         CLEAR     12  -8  40 S3        30.39S
PINE RIVER     CLEAR      7  -4  61 CALM      30.42R
BRAINERD       CLEAR      8  -9  45 S5        30.41R WCI   0
STAPLES        CLEAR      5  -6  61 S3        30.40S
LONG PRAIRIE   FAIR       5  -2  72 S6        30.42S WCI  -6
LITTLE FALLS   CLEAR      7  -6  56 CALM      30.44S
LITCHFIELD     CLEAR      3  -2  78 CALM      30.48S
BUFFALO        CLEAR      9   0  66 S3        30.51S
MAPLE LAKE     CLEAR      9   0  67 S3        30.49F
$$
MNZ037-044-045-052-053-280300-
   East Central Minnesota

CITY           SKY/WX    TMP DP  RH WIND       PRES   REMARKS
PRINCETON      CLEAR      9  -2  61 S6        30.47S WCI  -1
MORA           CLEAR      9  -4  56 S5        30.48R WCI   0
CAMBRIDGE      CLEAR     10   0  61 S5        30.47S WCI   2
RUSH CITY      CLEAR     10  -2  57 SW6       30.48S WCI   1
MOOSE LAKE     CLEAR      7  -8  51 CALM      30.41S
HINCKLEY       FAIR       9  -4  56 S6        30.45S WCI  -1
CLOQUET        CLEAR     10  -9  40 SW7       30.39S WCI   0
MCGREGOR       CLEAR      9  -4  56 S5        30.41R WCI   0
$$
MNZ071>073-080-081-089-090-097-098-280300-
   Southwest Minnesota

CITY           SKY/WX    TMP DP  RH WIND       PRES   REMARKS
MONTEVIDEO     CLEAR      9   1  72 SW7       30.47S WCI  -3
GRANITE FALLS  CLEAR      1  -4  81 S6        30.48F WCI -11
CANBY          CLEAR      5  -2  72 S6        30.45S WCI  -6
MARSHALL       CLEAR      5  -4  66 S5        30.46S WCI  -4
REDWOOD FALLS  FAIR       6  -1  73 S7        30.48S WCI  -6
OLIVIA         CLEAR      3  -4  72 S6        30.48S WCI  -8
PIPESTONE      CLEAR      7   0  72 S8        30.40S WCI  -6
WINDOM         CLEAR      3  -2  78 CALM      30.46S
WORTHINGTON    CLEAR     19  -6  32 S12       30.46S WCI   7
JACKSON        CLEAR      5  -2  72 S7        30.47S WCI  -7
TRACY          CLEAR      7   0  71 S8        30.45S WCI  -5
SLAYTON        CLEAR      3  -3  75 CALM      30.43S
$$
MNZ065>067-074>077-082>085-091>093-280300-
   South Central Minnesota

CITY           SKY/WX    TMP DP  RH WIND       PRES   REMARKS
MANKATO        CLEAR      5  -6  61 S7        30.51S WCI  -7
NEW ULM        CLEAR      3  -4  72 S6        30.50S WCI  -8
ST JAMES       FAIR       7   0  72 S7        30.51S WCI  -5
FAIRMONT       CLEAR      0  -8  71 S9        30.49R WCI -16
GLENCOE        CLEAR      4  -1  77 S3        30.50R
FARIBAULT      CLEAR      3  -2  78 S5        30.52S WCI  -6
OWATONNA       CLEAR      3  -2  78 S6        30.51S WCI  -8
WASECA         CLEAR      1  -4  78 S5        30.53S WCI  -8
ALBERT LEA     PTCLDY     3   0  85 CALM      30.51S
$$
MNZ078>079-086>088-094>096-280300-
   Southeast Minnesota

CITY           SKY/WX    TMP DP  RH WIND       PRES   REMARKS
ROCHESTER      PTCLDY    -5  -9  83 S9        30.51S WCI -22
RED WING       CLEAR      7  -2  66 SW7       30.55R WCI  -5
STANTON        CLEAR      0  -6  76 S6        30.52S WCI -12
DODGE CENTER   PTCLDY    -2  -8  78 S9        30.50S WCI -18
WINONA         CLEAR      9   0  66 SW5       30.59S WCI   0
AUSTIN         PTCLDY     0  -6  78 CALM      30.52S
PRESTON        MOCLDY    -1  -6  78 SW5       30.53S WCI -11
$$
ABBREVIATIONS USED IN REMARKS
   TC - TEMPERATURES IN CELSIUS
  WCI - WIND CHILL INDEX
   HX - HEAT INDEX
  VSB - VISIBILITY
$$


USA.gov is the U.S. government's official web portal to all federal, state and local government web resources and services.